EN

Hourly Weather Gogolewko

Today, 18 May, Tuesday

Time Temperature Precipitation Wind Pressure Humidity
00:00 +11°C° 0 mm 1 mps 746 mmHg 87%
01:00 +11°C° 0 mm 1 mps 746 mmHg 88%
02:00 +11°C° 0.2 mm 1 mps 746 mmHg 89%
03:00 +11°C° 0.2 mm 1 mps 747 mmHg 90%
04:00 +11°C° 0.2 mm 1 mps 747 mmHg 91%
05:00 +11°C° 0.3 mm 1 mps 747 mmHg 91%
06:00 +12°C° 0.3 mm 1 mps 747 mmHg 90%
07:00 +12°C° 0.3 mm 1 mps 747 mmHg 90%
08:00 +12°C° 0.3 mm 1 mps 748 mmHg 88%
09:00 +13°C° 0.3 mm 1 mps 748 mmHg 86%
10:00 +13°C° 0.3 mm 2 mps 748 mmHg 84%
11:00 +13°C° 0.2 mm 2 mps 748 mmHg 82%
12:00 +14°C° 0.2 mm 2 mps 748 mmHg 81%
13:00 +14°C° 0.2 mm 2 mps 749 mmHg 79%
14:00 +14°C° 0.2 mm 2 mps 749 mmHg 77%
15:00 +13°C° 0.2 mm 3 mps 749 mmHg 75%
16:00 +13°C° 0.2 mm 3 mps 749 mmHg 73%
17:00 +13°C° 0 mm 3 mps 749 mmHg 76%
18:00 +13°C° 0 mm 2 mps 749 mmHg 79%
19:00 +12°C° 0 mm 2 mps 750 mmHg 83%
20:00 +10°C° 0 mm 2 mps 750 mmHg 86%
21:00 +9°C° 0 mm 2 mps 750 mmHg 90%
22:00 +7°C° 0 mm 2 mps 750 mmHg 94%
23:00 +7°C° 0 mm 2 mps 750 mmHg 94%

Tomorrow, 19 May, Wednesday

Time Temperature Precipitation Wind Pressure Humidity
00:00 +7°C° 0 mm 2 mps 750 mmHg 95%
01:00 +7°C° 0 mm 2 mps 750 mmHg 95%
02:00 +7°C° 0 mm 3 mps 750 mmHg 95%
03:00 +7°C° 0 mm 3 mps 750 mmHg 95%
04:00 +7°C° 0 mm 3 mps 750 mmHg 95%
05:00 +8°C° 0 mm 3 mps 750 mmHg 90%
06:00 +10°C° 0 mm 4 mps 750 mmHg 85%
07:00 +11°C° 0 mm 4 mps 750 mmHg 80%
08:00 +12°C° 0 mm 5 mps 751 mmHg 74%
09:00 +12°C° 0 mm 5 mps 751 mmHg 68%
10:00 +13°C° 0 mm 5 mps 751 mmHg 63%
11:00 +13°C° 0 mm 5 mps 751 mmHg 60%
12:00 +14°C° 0 mm 5 mps 751 mmHg 57%
13:00 +14°C° 0 mm 6 mps 751 mmHg 54%
14:00 +14°C° 0 mm 5 mps 751 mmHg 54%
15:00 +13°C° 0 mm 5 mps 752 mmHg 55%
16:00 +13°C° 0 mm 5 mps 752 mmHg 56%
17:00 +12°C° 0 mm 5 mps 752 mmHg 61%
18:00 +11°C° 0 mm 4 mps 752 mmHg 66%
19:00 +10°C° 0 mm 4 mps 752 mmHg 71%
20:00 +9°C° 0 mm 3 mps 752 mmHg 78%
21:00 +8°C° 0 mm 3 mps 753 mmHg 84%
22:00 +5°C° 0 mm 3 mps 753 mmHg 91%
23:00 +5°C° 0 mm 3 mps 753 mmHg 91%

Day after tomorrow, 20 May, Thursday

Time Temperature Precipitation Wind Pressure Humidity
00:00 +5°C° 0 mm 3 mps 753 mmHg 92%
01:00 +5°C° 0 mm 3 mps 753 mmHg 93%
02:00 +5°C° 0 mm 3 mps 753 mmHg 94%
03:00 +4°C° 0 mm 3 mps 753 mmHg 94%
04:00 +4°C° 0 mm 3 mps 753 mmHg 94%
05:00 +7°C° 0 mm 3 mps 754 mmHg 87%
06:00 +9°C° 0 mm 3 mps 754 mmHg 80%
07:00 +11°C° 0 mm 4 mps 754 mmHg 74%
08:00 +12°C° 0 mm 4 mps 754 mmHg 67%
09:00 +13°C° 0 mm 5 mps 754 mmHg 61%
10:00 +14°C° 0 mm 5 mps 754 mmHg 54%
11:00 +14°C° 0 mm 5 mps 754 mmHg 55%
12:00 +14°C° 0 mm 6 mps 754 mmHg 55%
13:00 +14°C° 0 mm 6 mps 755 mmHg 55%
14:00 +14°C° 0 mm 6 mps 755 mmHg 55%
15:00 +13°C° 0 mm 6 mps 755 mmHg 55%
16:00 +11°C° 0 mm 6 mps 755 mmHg 54%
17:00 +10°C° 0 mm 6 mps 755 mmHg 59%
18:00 +9°C° 0 mm 5 mps 755 mmHg 63%
19:00 +8°C° 0 mm 4 mps 755 mmHg 68%
20:00 +7°C° 0 mm 4 mps 755 mmHg 72%
21:00 +6°C° 0 mm 4 mps 755 mmHg 76%
22:00 +5°C° 0 mm 3 mps 755 mmHg 81%
23:00 +5°C° 0 mm 3 mps 755 mmHg 82%

21 May, Friday

Time Temperature Precipitation Wind Pressure Humidity
00:00 +5°C° 0 mm 3 mps 755 mmHg 84%
01:00 +5°C° 0 mm 3 mps 755 mmHg 86%
02:00 +5°C° 0 mm 3 mps 755 mmHg 89%
03:00 +4°C° 0 mm 3 mps 755 mmHg 92%
04:00 +4°C° 0 mm 3 mps 754 mmHg 95%
05:00 +7°C° 0 mm 3 mps 754 mmHg 87%
06:00 +9°C° 0 mm 3 mps 754 mmHg 80%
07:00 +11°C° 0 mm 4 mps 754 mmHg 73%
08:00 +12°C° 0.1 mm 4 mps 753 mmHg 68%
09:00 +13°C° 0.1 mm 5 mps 753 mmHg 62%
10:00 +15°C° 0.1 mm 5 mps 752 mmHg 57%
11:00 +15°C° 0.2 mm 5 mps 752 mmHg 59%
12:00 +15°C° 0.2 mm 5 mps 752 mmHg 61%
13:00 +15°C° 0.2 mm 4 mps 751 mmHg 64%
14:00 +15°C° 0.1 mm 4 mps 751 mmHg 63%
15:00 +15°C° 0.1 mm 4 mps 750 mmHg 62%
16:00 +17°C° 0.1 mm 3 mps 750 mmHg 61%
17:00 +14°C° 0.7 mm 3 mps 750 mmHg 71%
18:00 +12°C° 0.7 mm 3 mps 750 mmHg 80%
19:00 +10°C° 0.7 mm 2 mps 749 mmHg 90%
20:00 +10°C° 0.7 mm 2 mps 749 mmHg 91%
21:00 +10°C° 0.7 mm 3 mps 748 mmHg 92%
22:00 +10°C° 0.7 mm 3 mps 748 mmHg 93%
23:00 +10°C° 0.2 mm 3 mps 747 mmHg 93%

22 May, Saturday

Time Temperature Precipitation Wind Pressure Humidity
00:00 +10°C° 0.2 mm 4 mps 747 mmHg 94%
01:00 +10°C° 0.2 mm 4 mps 746 mmHg 94%
02:00 +10°C° 0.1 mm 4 mps 746 mmHg 94%
03:00 +10°C° 0.1 mm 4 mps 746 mmHg 95%
04:00 +9°C° 0.1 mm 3 mps 746 mmHg 95%
05:00 +10°C° 0.6 mm 3 mps 746 mmHg 95%
06:00 +10°C° 0.6 mm 3 mps 746 mmHg 96%
07:00 +10°C° 0.6 mm 3 mps 746 mmHg 96%
08:00 +11°C° 0.5 mm 3 mps 746 mmHg 95%
09:00 +11°C° 0.5 mm 4 mps 746 mmHg 94%
10:00 +11°C° 0.5 mm 4 mps 745 mmHg 94%
11:00 +12°C° 0.7 mm 4 mps 745 mmHg 93%
12:00 +12°C° 0.7 mm 4 mps 745 mmHg 93%
13:00 +12°C° 0.7 mm 4 mps 745 mmHg 92%
14:00 +12°C° 0.5 mm 4 mps 745 mmHg 90%
15:00 +12°C° 0.5 mm 4 mps 745 mmHg 88%
16:00 +13°C° 0.5 mm 4 mps 745 mmHg 86%
17:00 +12°C° 0.4 mm 3 mps 745 mmHg 88%
18:00 +12°C° 0.4 mm 3 mps 745 mmHg 89%
19:00 +12°C° 0.4 mm 2 mps 745 mmHg 91%
20:00 +10°C° 0.1 mm 3 mps 745 mmHg 92%
21:00 +9°C° 0.1 mm 3 mps 746 mmHg 94%
22:00 +8°C° 0.1 mm 3 mps 746 mmHg 95%
23:00 +8°C° 0 mm 3 mps 746 mmHg 95%

23 May, Sunday

Time Temperature Precipitation Wind Pressure Humidity
00:00 +8°C° 0 mm 3 mps 746 mmHg 94%
01:00 +6°C° 0 mm 4 mps 746 mmHg 93%
02:00 +7°C° 0 mm 4 mps 746 mmHg 93%
03:00 +7°C° 0 mm 4 mps 746 mmHg 93%
04:00 +7°C° 0 mm 4 mps 746 mmHg 93%
05:00 +7°C° 0 mm 5 mps 747 mmHg 91%
06:00 +8°C° 0 mm 5 mps 747 mmHg 89%
07:00 +8°C° 0 mm 6 mps 748 mmHg 87%
08:00 +10°C° 0.1 mm 6 mps 748 mmHg 77%
09:00 +11°C° 0.1 mm 7 mps 748 mmHg 67%
10:00 +12°C° 0.1 mm 7 mps 748 mmHg 57%
11:00 +12°C° 0.2 mm 7 mps 748 mmHg 60%
12:00 +12°C° 0.2 mm 7 mps 749 mmHg 62%
13:00 +13°C° 0.2 mm 6 mps 749 mmHg 65%
14:00 +13°C° 0.3 mm 6 mps 749 mmHg 66%
15:00 +11°C° 0.3 mm 6 mps 750 mmHg 67%
16:00 +11°C° 0.3 mm 6 mps 750 mmHg 67%
17:00 +12°C° 0.1 mm 5 mps 750 mmHg 70%
18:00 +10°C° 0.1 mm 5 mps 750 mmHg 72%
19:00 +9°C° 0.1 mm 5 mps 751 mmHg 75%
20:00 +8°C° 0 mm 4 mps 751 mmHg 80%
21:00 +8°C° 0 mm 3 mps 751 mmHg 84%
22:00 +7°C° 0 mm 3 mps 751 mmHg 89%
23:00 +7°C° 0 mm 3 mps 751 mmHg 87%
Show more